Lake Louise, Canada 16 day weather forecast

Slopes altitude range 1630 m - 2730m

Number of lifts: 26 Pistes: 100km

In some cases the lift and piste totals shown are for the ski domain (e.g. Three Valleys) rather than individual resort (e.g. Courchevel)

Overview

The 16 day weather forecast is fully updated 4 times every day.

    • Thu 21 JUN 2018
    • Thu 21
    • 9C 14C
    • Fri 22 JUN 2018
    • Fri 22
    • 7C 10C
    • Sat 23 JUN 2018
    • Sat 23
    • 6C 7C
    • Sun 24 JUN 2018
    • Sun 24
    • 5C 7C
    • Mon 25 JUN 2018
    • Mon 25
    • 6C 9C
    • Tue 26 JUN 2018
    • Tue 26
    • 0C 4C
    • Wed 27 JUN 2018
    • Wed 27
    • -1C 1C
    • Thu 28 JUN 2018
    • Thu 28
    • 1C 2C
    • Fri 29 JUN 2018
    • Fri 29
    • 4C 6C
    • Sat 30 JUN 2018
    • Sat 30
    • 3C 5C
    • Sun 01 JUL 2018
    • Sun 01
    • 2C 4C
    • Mon 02 JUL 2018
    • Mon 02
    • 7C 15C
    • Tue 03 JUL 2018
    • Tue 03
    • 8C 18C
    • Wed 04 JUL 2018
    • Wed 04
    • 12C 23C
    • Thu 05 JUL 2018
    • Thu 05
    • 7C 21C
    • Fri 06 JUL 2018
    • Fri 06
    • 4C 15C

Date:

Time Type 0°C level Temp Chill Snow Cloud Speed Gust Dir Press
18:00 3827m 14°C 14_4 0cm 100% 4mph 4mph 1009mB
21:00 3822m 12°C 12_5 0cm 100% 5mph 7mph 1009mB
0:00 3878m 12°C 12_5 0cm 93% 5mph 6mph 1009mB
3:00 3810m 12°C 12_2 0cm 80% 2mph 2mph 1010mB
6:00 3808m 10°C 10_3 0cm 90% 3mph 3mph 1011mB
9:00 3700m 9°C 9_2 0cm 97% 2mph 3mph 1011mB
12:00 3786m 10°C 10_4 0cm 87% 4mph 5mph 1011mB
15:00 3716m 11°C 11_5 0cm 67% 5mph 5mph 1010mB
18:00 3689m 12°C 12_3 0cm 79% 3mph 4mph 1009mB
21:00 3700m 11°C 11_2 0cm 98% 2mph 3mph 1008mB
0:00 3666m 9°C 9_4 0cm 99% 4mph 5mph 1008mB
3:00 3564m 7°C 7_3 0cm 100% 3mph 3mph 1008mB
6:00 3539m 7°C 7_3 0cm 100% 3mph 5mph 1009mB
9:00 3501m 6°C 6_3 0cm 99% 3mph 3mph 1009mB
12:00 3484m 7°C 7_6 0cm 100% 6mph 11mph 1010mB
15:00 3503m 9°C 9_6 0cm 99% 6mph 11mph 1011mB
18:00 3675m 10°C 10_6 0cm 100% 6mph 9mph 1012mB
21:00 3686m 11°C 11_4 0cm 97% 4mph 6mph 1011mB
0:00 3883m 11°C 11_3 0cm 97% 3mph 5mph 1011mB
3:00 3888m 11°C 11_1 0cm 97% 1mph 2mph 1013mB
6:00 3871m 8°C 8_2 0cm 93% 2mph 3mph 1015mB
9:00 3812m 6°C 6_2 0cm 6% 2mph 3mph 1015mB
12:00 3829m 7°C 7_3 0cm 5% 3mph 4mph 1016mB
15:00 3861m 11°C 11_5 0cm 0% 5mph 5mph 1015mB
18:00 3957m 14°C 14_7 0cm 3% 7mph 8mph 1013mB
21:00 3902m 15°C 15_11 0cm 3% 11mph 12mph 1011mB
0:00 4050m 15°C 15_11 0cm 2% 11mph 12mph 1009mB
3:00 4162m 15°C 15_7 0cm 0% 7mph 11mph 1009mB
6:00 4459m 9°C 9_5 0cm 4% 5mph 6mph 1009mB
9:00 4579m 7°C 7_4 0cm 7% 4mph 5mph 1007mB
12:00 4449m 9°C 9_4 0cm 18% 4mph 5mph 1006mB
15:00 4304m 13°C 13_9 0cm 96% 9mph 13mph 1003mB
18:00 3738m 15°C 15_19 0cm 97% 19mph 35mph 1001mB
21:00 3688m 15°C 15_18 0cm 28% 18mph 26mph 1001mB
0:00 3390m 11°C 11_11 0cm 60% 11mph 18mph 1002mB
3:00 3145m 8°C 8_10 0cm 82% 10mph 18mph 1005mB
6:00 2938m 4°C 4_6 0cm 45% 6mph 8mph 1009mB
9:00 2698m 1°C 1_6 0cm 4% 6mph 10mph 1010mB
12:00 2281m 4°C 4_7 0cm 25% 7mph 8mph 1012mB
15:00 2514m 3°C 3_7 0cm 23% 7mph 10mph 1012mB
18:00 2635m 5°C 5_9 0cm 61% 9mph 14mph 1011mB
21:00 2838m 6°C 6_20 1cm 65% 20mph 23mph 1011mB
0:00 2852m 6°C 6_17 3cm 71% 17mph 24mph 1011mB
3:00 2755m 4°C 4_13 0cm 17% 13mph 23mph 1012mB
6:00 2581m 1°C 1_6 0cm 9% 6mph 8mph 1013mB
9:00 2180m -1°C -1_6 0cm 1% 6mph 7mph 1013mB
12:00 2188m 1°C 1_8 0cm 32% 8mph 14mph 1012mB
15:00 2598m 5°C 5_12 0cm 2% 12mph 23mph 1009mB
18:00 2791m 8°C 8_16 0cm 6% 16mph 23mph 1007mB
21:00 3024m 7°C 7_20 0cm 1% 20mph 26mph 1005mB
0:00 3136m 7°C 7_18 0cm 1% 18mph 24mph 1005mB
3:00 3044m 7°C 7_7 0cm 0% 7mph 16mph 1007mB
6:00 2971m 2°C 2_4 0cm 0% 4mph 5mph 1010mB
9:00 2965m 1°C 1_4 0cm 0% 4mph 6mph 1010mB
12:00 2961m 2°C 2_4 0cm 0% 4mph 6mph 1011mB
15:00 2940m 7°C 7_8 0cm 0% 8mph 14mph 1009mB
18:00 3165m 11°C 11_13 0cm 1% 13mph 15mph 1008mB
21:00 3346m 11°C 11_17 0cm 22% 17mph 17mph 1007mB
0:00 3423m 11°C 11_16 0cm 40% 16mph 16mph 1007mB
3:00 3176m 8°C 8_5 0cm 100% 5mph 8mph 1009mB
6:00 3023m 6°C 6_3 0cm 100% 3mph 4mph 1011mB
9:00 2977m 5°C 5_2 0cm 100% 2mph 3mph 1011mB
12:00 2902m 6°C 6_1 0cm 98% 1mph 1mph 1012mB
15:00 2907m 8°C 8_3 0cm 1% 3mph 4mph 1011mB
18:00 3030m 11°C 11_4 0cm 10% 4mph 5mph 1010mB
21:00 3160m 10°C 10_5 0cm 51% 5mph 6mph 1010mB
0:00 3164m 9°C 9_5 0cm 75% 5mph 6mph 1010mB
3:00 3086m 7°C 7_5 0cm 100% 5mph 7mph 1012mB
6:00 3028m 5°C 5_2 0cm 100% 2mph 3mph 1014mB
9:00 2944m 4°C 4_2 0cm 99% 2mph 2mph 1016mB
12:00 2805m 5°C 5_2 0cm 98% 2mph 3mph 1017mB
15:00 2705m 6°C 6_5 0cm 96% 5mph 8mph 1017mB
18:00 2845m 8°C 8_5 0cm 97% 5mph 6mph 1016mB
21:00 3075m 8°C 8_7 0cm 99% 7mph 8mph 1017mB
0:00 3081m 8°C 8_7 0cm 88% 7mph 10mph 1018mB
3:00 3063m 7°C 7_4 0cm 43% 4mph 7mph 1020mB
6:00 3024m 4°C 4_2 0cm 22% 2mph 2mph 1022mB
9:00 3113m 3°C 3_2 0cm 0% 2mph 3mph 1023mB
12:00 3205m 4°C 4_3 0cm 0% 3mph 4mph 1024mB
Morning 0mm 0 3467m 4°C 4_2 0cm 47% 2mph 6mph 1019mB
Afternoon 0mm 0 3580m 15°C 15_6 0cm 95% 6mph 6mph 1020mB
Morning 0.00520833mm 0.0625 3749m 7°C 7_1 0cm 74% 1mph 5mph 1015mB
Afternoon 0mm 0 4004m 18°C 18_6 0cm 17% 6mph 7mph 1017mB
Morning 0mm 0 4223m 9°C 9_11 0cm 3% 11mph 16mph 1007mB
Afternoon 0mm 0 4077m 23°C 23_11 0cm 1% 11mph 21mph 1008mB
Morning 0mm 0 4015m 12°C 12_16 0cm 2% 16mph 21mph 1003mB
Afternoon 0.00520833mm 0.0625 3437m 21°C 21_3 0cm 27% 3mph 3mph 1009mB
Morning 0.0989583mm 1.1875 3419m 7°C 7_6 0cm 15% 6mph 13mph 1007mB
Afternoon 0.109375mm 1.3125 3128m 15°C 15_5 0cm 15% 5mph 6mph 1014mB
Morning 0mm 0 3724m 4°C 4_5 0cm 35% 5mph 12mph 1008mB
Afternoon 0mm 0 3684m 18°C 18_6 0cm 36% 6mph 7mph 1012mB

16 day outlook at a glance

Forecast issued: 21/06/2018 22:58:25

Chat

Your comments and questions. In a resort? Let us know what it's like!


Characters left 250

For terms and conditions see Readers Comments on the Cookie and privacy policy page.